Showing default

KUIPER-00077, 64824

Orbit data source: Space-Track

KUIPER-00077, 64824 is a payload satellite owned by Kuiper Systems (US) in LEO that was launched on Wed, 16 Jul 2025 UTC via an FALCON 9 launch vehicle from the Air Force Eastern Test Range (AFETR). Payload-class satellites include a variety of spacecraft equipped with specific instruments for various scientific and technological missions. These include communications satellites like Starlink; space stations such as the ISS; scientific satellites like the Hubble; Earth observation satellites from companies like Planet Labs, Umbra, and HawkEye 360; GPS; miniature CubeSats for education and research; and military/defense satellites.

Loading next visibility...
Identifier
64824, 2025-151J
Orbit
LEO
Country
Flag of USUS
Related business
Manufacturer
Kuiper Systems
Mission
Operational Commercial Communications
Bus & Motor
KUIPER, Unknown motor
Mass
~490 kg wet, ~490 kg dry
Launch date (UTC)
2025-07-16 (11 months ago)
Launch vehicle
FALCON 9
Launch site
Air Force Eastern Test Range (AFETR)
Object type
Payload
Rocket body
Debris
Shape & HBR
Box + 2 Pan, 3.4 m
Radar Cross Section
2.326 m², Large (>1 m²)

Expand to show TLE details & history
Last TLE update: 7 hours ago

TLE from 7 hours ago
0 KUIPER-00077
1 64824U 25151J   26166.88355302  .00002237  00000-0  32257-3 0  9999
2 64824  51.9007 223.8993 0000620  89.8938 270.2095 14.79910535 49885
Epoch: 2026-06-15T21:12Z
TLE epoch observation values (Epoch: 2026-06-15T21:12:18.980Z)
Latitude
-0.00007°
Longitude
1.65661°
Altitude
630.352 km
Speed
7.544 km/s
True Right ascension
14h 55m 35s
True Declination
0° 00' 00"
Sunlit
Object was in full shadow at epoch
Visualization orbit readout
Latitude
Unknown
Longitude
Unknown
Altitude
Unknown
Speed
Unknown
Apparent Right ascension
Unknown
Apparent Declination
Unknown
Sunlit
N/A
Visualization observer readout
Local Sidereal Time
14:43:30
Azimuth
Unknown
Elevation
Unknown
Doppler factor
Unknown
Orbital elements
Apogee altitude
630.492 km
Perigee altitude
629.623 km
Semi-major axis
7,008.195 km
Eccentricity
0.00006
Inclination
51.9007°
RAAN
223.8993°
Arg. of periapsis
89.8938°
True anomaly
270.2024°
Mean anomaly
270.2095°
Eccentric anomaly
270.20595°
Mean motion
3.69942 °/min
Orbital period
97.31 mins
BSTAR
0.00032257
Loading maneuver chart data...
Computing Atmospheric mass density...
Loading historical data...
Loading historical data...
Loading historical data...
Loading historical data...
Loading historical data...
Loading historical data...
Loading historical data...

Documentation

Showing up to 5 results
|